• Join FlightAware (Why Join?)
  • Login
  • US Flag 
08:14AM EST


 

Airport Tracker/Info


-or-


 

Live Flight TrackerFlight Track Log ✈ SWA1586 ✈ 01-May-2013 ✈ KSLC - KDEN

Flight Track Log - Related Links

Times and Time Zones

All times are in EDT time to prevent confusion due to time zone crossing. See the SWA1586 flight status page for this flight to view local times or setup timezone preferences in your user account.

Time Position Orientation Groundspeed Altitude Reporting Facility
EDT Latitude Longitude Course Direction KTS MPH feet Rate Location/Type
10:11PM 40.8075 -111.9619 353° North 171 197 5,300  Level Salt Lake Center
10:12PM 40.8586 -111.9703 353° North 212 244 6,800 2,420 Climbing Salt Lake Center
10:13PM 40.9264 -111.9792 354° North 237 273 10,100 2,640 Climbing Salt Lake Center
10:14PM 40.9897 -111.9464 21° North 286 329 12,300 2,146 Climbing Salt Lake Center
10:15PM 40.9828 -111.8331 95° East 328 377 14,500 2,341 Climbing Salt Lake Center
10:16PM 40.9692 -111.6656 96° East 396 456 17,100 2,390 Climbing Salt Lake Center
10:17PM 40.9561 -111.5106 96° East 424 488 19,400 2,293 Climbing Salt Lake Center
10:18PM 40.9422 -111.3481 96° East 449 517 21,800 2,341 Climbing Salt Lake Center
10:19PM 40.9267 -111.1806 97° East 460 529 24,200 2,098 Climbing Salt Lake Center
10:20PM 40.9122 -111.0089 96° East 470 541 26,100 1,756 Climbing Salt Lake Center
10:21PM 40.8950 -110.8317 97° East 483 556 27,800 1,707 Climbing Salt Lake Center
10:22PM 40.8772 -110.6519 97° East 491 565 29,600 1,805 Climbing Salt Lake Center
10:23PM 40.8625 -110.4511 95° East 501 577 31,500 1,659 Climbing Salt Lake Center
10:24PM 40.8458 -110.2747 97° East 505 581 33,000 1,918 Climbing Salt Lake Center
10:25PM 40.8233 -110.0689 98° East 504 580 35,400 1,854 Climbing Salt Lake Center
10:26PM 40.8075 -109.8953 97° East 499 574 36,800 1,366 Climbing Salt Lake Center
10:27PM 40.7869 -109.6931 98° East 499 574 38,200 1,073 Climbing Salt Lake Center
10:28PM 40.7689 -109.5197 98° East 496 571 39,000 390 Climbing Salt Lake Center
10:29PM 40.7517 -109.3511 98° East 486 559 39,000  Level Salt Lake Center
10:30PM 40.7331 -109.1675 98° East 474 545 39,000  Level Salt Lake Center
10:31PM 40.7117 -108.9731 98° East 481 554 39,000  Level Salt Lake Center
10:32PM 40.6936 -108.8044 98° East 487 560 39,000  Level Salt Lake Center
10:33PM 40.6836 -108.7069 98° East 485 558 39,000  Level Denver Center
10:34PM 40.6603 -108.5072 99° East 491 565 39,000  Level Denver Center
10:34PM 40.6528 -108.4369 98° East 493 567 39,000  Level Salt Lake Center
10:35PM 40.6406 -108.3347 99° East 495 570 39,000  Level Denver Center
10:36PM 40.6183 -108.1328 98° East 497 572 39,000  Level Denver Center
10:37PM 40.5989 -107.9611 98° East 496 571 39,000  Level Denver Center
10:38PM 40.5792 -107.7897 99° East 495 570 39,000 -293 Level Denver Center
10:39PM 40.5542 -107.5872 99° East 499 574 38,400 -732 Descending Denver Center
10:40PM 40.5336 -107.4158 99° East 496 571 37,500 -1,951 Descending Denver Center
10:41PM 40.5131 -107.2175 98° East 492 566 34,400 -2,195 Descending Denver Center
10:42PM 40.5081 -107.0683 92° East 491 565 33,000 -683 Descending Denver Center
10:43PM 40.4981 -106.8894 94° East 489 563 33,000  Level Denver Center
10:44PM 40.4875 -106.7103 94° East 489 563 33,000  Level Denver Center
10:45PM 40.4769 -106.5058 94° East 489 563 33,000 -98 Level Denver Center
10:46PM 40.4661 -106.3333 95° East 491 565 32,800 -1,902 Descending Denver Center
10:47PM 40.4544 -106.1458 95° East 487 560 29,100 -2,683 Descending Denver Center
10:48PM 40.4422 -105.9717 95° East 477 549 27,300 -2,016 Descending Denver Center
10:49PM 40.4153 -105.8172 103° East 437 503 25,000 -2,000 Descending Denver Center
10:50PM 40.3919 -105.6628 101° East 427 491 23,200 -1,902 Descending Denver Center
10:51PM 40.3694 -105.5203 102° East 400 460 21,100 -1,918 Descending Denver Center
10:52PM 40.3169 -105.3761 115° Southeast 416 479 19,300 -2,000 Descending Denver Center
10:53PM 40.2417 -105.2567 130° Southeast 397 457 17,000 -2,146 Descending Denver Center
10:54PM 40.1728 -105.1489 130° Southeast 389 448 14,900 -1,721 Descending Denver Center
10:55PM 40.1083 -105.0475 130° Southeast 360 414 13,500 -927 Descending Denver Center
10:56PM 40.0478 -104.9542 130° Southeast 338 389 13,000 -439 Descending Denver Center
10:57PM 39.9831 -104.8536 130° Southeast 335 386 12,600 -689 Descending Denver Center
10:58PM 39.9039 -104.8047 155° Southeast 338 389 11,600 -780 Descending Denver Center
10:59PM 39.8106 -104.8083 182° South 303 349 11,000 -439 Descending Denver Center
11:00PM 39.7367 -104.8100 181° South 266 306 10,700 -689 Descending Denver Center
11:01PM 39.6686 -104.8114 181° South 246 283 9,600 -829 Descending Denver Center
11:02PM 39.6206 -104.7658 144° Southeast 237 273 9,000 -780 Descending Denver Center
11:03PM 39.6375 -104.6936 73° East 232 267 8,000 -787 Descending Denver Center
11:04PM 39.6836 -104.6622 28° Northeast 183 211 7,400 -488 Descending Denver Center
11:06PM 39.7322 -104.6617 North 173 199 7,000 -488 Descending Denver Center
11:07PM 39.7833 -104.6617 360° North 170 196 6,400 -689 Descending Denver Center
11:08PM 39.8200 -104.6608 North 136 157 5,600 -787 Descending Denver Center
11:10PM 39.8500 -104.6667 North  Level FlightAware Approximate
11:17PM 39.8617 -104.6732 North  Level Estimated
11:18PM 39.8617 -104.6732 North  Level Estimated
11:19PM 39.8617 -104.6732 North  Level Estimated